Regional Weather Roundup
Issued by NWS

Home | Current Version | Previous Version | Graphics & Text | Print | Product List | Glossary Off
Versions: 1 2 3 4 5 6 7 8 9 10 11 12 13 14 15 16 17 18 19 20 21 22 23 24 25 26 27 28 29 30 31 32 33 34 35 36 37 38 39 40 41 42 43 44 45 46 47 48 49 50

000
ASUS43 KFSD 270002
RWRSD

WEATHER ROUNDUP FOR SOUTH DAKOTA
NATIONAL WEATHER SERVICE SIOUX FALLS SD
600 PM CST THU FEB 26 2015

NOTE: "FAIR" INDICATES FEW OR NO CLOUDS BELOW 12,000 FEET WITH NO
SIGNIFICANT WEATHER AND/OR OBSTRUCTIONS TO VISIBILITY.


SDZ001>005-009-010-012>017-270100-
NORTHWEST AND NORTH CENTRAL SOUTH DAKOTA

CITY           SKY/WX    TMP DP  RH WIND       PRES   REMARKS
BUFFALO          N/A     11  -6  46 N3        30.33F
FAITH            N/A     11  -5  48 N7        30.43S WCI   0
MOBRIDGE       CLEAR      8  -5  55 NW5       30.49S WCI   0
$$

SDZ012>016-024>037-041>051-057-063-072>074-270100-
SOUTHWEST AND SOUTH CENTRAL SOUTH DAKOTA

CITY           SKY/WX    TMP DP  RH WIND       PRES   REMARKS
RAPID CTY ARPT CLEAR      7  -4  60 NW9       30.39S WCI  -7
PIERRE         CLEAR     10  -2  58 N8        30.51S WCI  -2
CUSTER         CLOUDY     2  -5  72 SE6       30.14S WCI  -9
ELLSWORTH AFB  CLEAR      8  -3  61 NW8       30.37S WCI  -5
PHILIP         CLEAR     13  -5  44 NE7       30.47S WCI   3
PINE RIDGE     CLEAR     12  -5  46 NE7       30.36S WCI   1
WINNER         FAIR      11  -7  44 N12       30.48S WCI  -3
$$

SDZ004>011-016>023-039-040-270100-
NORTHEAST SOUTH DAKOTA

CITY           SKY/WX    TMP DP  RH WIND       PRES   REMARKS
ABERDEEN       CLEAR      5  -7  57 NW10      30.55S WCI -10
WATERTOWN      CLEAR      1  -8  66 N14       30.46S WCI -17
SISSETON         N/A      2  -7  66 N13       30.52S WCI -15
$$

SDZ017-020-022-023-036>040-048>070-270100-
SOUTHEAST SOUTH DAKOTA

CITY           SKY/WX    TMP DP  RH WIND       PRES   REMARKS
SIOUX FALLS    PTCLDY     2  -5  72 NW14      30.50R WCI -16
HURON          CLEAR      2  -8  63 N9        30.55S WCI -13
MITCHELL       CLEAR      5  -4  66 NW12      30.56R WCI -11
YANKTON        CLEAR      9  -6  52 NW12      30.54S WCI  -6
$$

ABBREVIATIONS USED IN REMARKS
   TC - TEMPERATURE IN CELSIUS
  WCI - WIND CHILL INDEX
   HX - HEAT INDEX
  VSB - VISIBILITY




USA.gov is the U.S. government's official web portal to all federal, state and local government web resources and services.